{"data":{"norad_id":54748,"epoch":"2026-05-24T22:48:43.348608Z","epoch_age_seconds":75409,"freshness":"FRESH","line1":"1 54748U 22171C   26144.95050172  .00009852  00000+0  40824-3 0  9991","line2":"2 54748  35.0060 341.0621 0003272 320.7007  39.3470 15.23139608191841","mean_motion":15.23139608,"eccentricity":0.0003272,"inclination_deg":35.006,"raan_deg":341.0621,"arg_perigee_deg":320.7007,"mean_anomaly_deg":39.347,"bstar":0.00040824,"rev_number":19184,"period_min":94.541563520289,"perigee_km":494.12817722634,"apogee_km":498.62685952716,"semimajor_km":6874.5145183767,"source":"CELESTRAK","updated_at":"2026-05-25T13:37:58.732402Z"}}